[[{"header":{"parameterUnit":"m.s-1","parameterCategory":1,"la1":30.2991,"la2":30.254,"lo1":-89.0895,"lo2":-89.0444,"dy":0.0017,"dx":0.0017,"nx":28,"ny":28,"refTime":"2025-09-02T03:00:00:Z","depth":0,"parameterNumber":2,"parameterNumberName":"U-component_of_WINDS"},"data":[0,0,0,0,0,0,0,0,0,0,0,0,0,0,0,0,0,0,0,0,0,0,0,0,0,0,0,0,0,0,0,0,0,0,0,0,0,0,0,0,0,0,0,0,0,0,0,0,0,0,0,0,0,0,0,0,0,0,-1.4399,-1.44,0,-1.4421,-1.4422,-1.4422,-1.4385,-1.4384,-1.4383,-1.4382,-1.4406,-1.4408,-1.441,0,0,0,0,0,0,0,0,0,0,0,0,0,-1.4327,-1.4328,-1.4399,-1.44,-1.44,-1.4421,-1.4422,-1.4422,-1.4385,-1.4384,-1.4382,-1.4381,-1.4405,-1.4408,-1.441,0,0,0,0,0,0,0,0,0,0,0,0,0,-1.4355,-1.4329,-1.4399,-1.4384,-1.4383,-1.4421,-1.4422,-1.4422,-1.4386,-1.4384,-1.4382,-1.438,-1.4405,-1.4407,-1.441,-1.4465,0,0,-1.4418,-1.442,0,0,0,0,0,0,0,0,-1.4353,-1.4357,-1.4386,-1.4385,-1.4384,-1.4399,-1.4405,-1.4436,-1.4386,-1.4385,-1.4382,-1.4379,-1.4405,-1.4408,-1.4416,-1.4466,-1.4467,-1.4419,-1.442,-1.4422,-1.4422,0,0,0,0,0,0,0,-1.4351,-1.4356,-1.4408,-1.4387,-1.4385,-1.4377,-1.4379,-1.4411,-1.4405,-1.4385,-1.4382,-1.4385,-1.4404,-1.4414,-1.4416,-1.4467,-1.4419,-1.4421,-1.4423,-1.4424,-1.4563,-1.4565,0,0,0,0,0,0,-1.4351,-1.4355,-1.4407,-1.4409,-1.4364,-1.438,-1.4382,-1.4396,-1.4405,-1.4404,-1.4387,-1.4383,-1.441,-1.4413,-1.4417,-1.4482,-1.4422,-1.4424,-1.4426,-1.4561,-1.4563,-1.4566,0,0,0,0,0,0,-1.435,-1.4356,-1.4407,-1.4381,-1.4387,-1.4383,-1.4399,-1.4397,-1.4407,-1.4406,-1.4405,-1.4397,-1.4408,-1.4413,-1.4453,-1.4483,-1.4425,-1.4428,-1.4558,-1.4562,-1.4564,-1.4613,0,0,0,0,0,0,-1.4348,-1.4356,-1.4376,-1.4382,-1.4388,-1.4442,-1.4401,-1.4399,-1.4411,-1.4407,-1.4416,-1.4416,-1.4407,-1.4449,-1.4456,-1.4485,-1.443,-1.4556,-1.456,-1.4563,-1.4609,-1.4617,-1.4625,0,0,0,0,0,-1.4345,-1.439,-1.4378,-1.4384,-1.4414,-1.4444,-1.4448,-1.4437,-1.4414,-1.4435,-1.4434,-1.4415,-1.4478,-1.4454,-1.4461,-1.4492,-1.4554,-1.4559,-1.4563,-1.4605,-1.4616,-1.4624,0,0,0,0,0,0,-1.4389,-1.439,-1.4377,-1.4424,-1.4434,-1.4437,-1.4464,-1.4448,-1.4465,-1.4461,-1.4447,-1.4449,-1.4492,-1.4495,-1.4468,-1.4545,-1.4512,-1.4518,-1.4542,-1.4552,-1.4559,-1.4559,-1.4432,0,0,0,0,0,-1.4403,-1.4427,-1.4427,-1.4469,-1.4474,-1.4468,-1.4481,-1.4471,-1.4481,-1.4485,-1.4488,-1.4499,-1.4521,-1.4536,-1.4556,-1.4608,-1.461,-1.4633,-1.4641,-1.4647,-1.4654,-1.4682,-1.4692,-1.4581,-1.4581,-1.4581,0,0,-1.4435,-1.4439,-1.4455,-1.4478,-1.4484,-1.451,-1.4472,-1.45,-1.4519,-1.449,-1.4528,-1.453,-1.4541,-1.4587,-1.4608,-1.4592,-1.4684,-1.4653,-1.4658,-1.4661,-1.4688,-1.4698,-1.4708,-1.4584,-1.4583,-1.4583,0,0,-1.4506,-1.451,-1.4546,-1.4553,-1.4563,-1.4558,-1.4566,-1.4572,-1.4572,-1.461,-1.4588,-1.461,-1.4648,-1.4657,-1.4667,-1.4739,-1.4723,-1.4746,-1.4789,-1.4817,-1.4826,-1.4833,-1.4861,-1.4871,-1.4752,-1.4752,-1.4752,0,-1.4544,-1.4581,-1.4566,-1.4596,-1.4607,-1.458,-1.4617,-1.4624,-1.4641,-1.4649,-1.463,-1.4677,-1.4683,-1.4731,-1.4749,-1.4757,-1.4767,-1.4747,-1.4825,-1.4833,-1.484,-1.4866,-1.4876,-1.4755,-1.4755,-1.4754,-1.4754,0,-1.4628,-1.4654,-1.4681,-1.4697,-1.4711,-1.4744,-1.4735,-1.4751,-1.4739,-1.4737,-1.4775,-1.478,-1.4802,-1.4812,-1.4801,-1.4859,-1.4848,-1.4827,-1.4795,-1.4854,-1.4878,-1.4888,-1.4759,-1.4758,-1.4757,-1.4757,0,0,-1.4729,-1.4735,-1.4746,-1.4753,-1.4761,-1.4781,-1.4813,-1.4832,-1.4847,-1.4858,-1.4885,-1.4917,-1.4898,-1.4909,-1.4899,-1.4923,-1.4981,-1.4899,-1.4899,-1.4916,-1.5046,-1.5064,-1.5075,-1.4969,-1.4971,-1.4972,-1.5046,0,-1.4801,-1.4855,-1.4842,-1.4896,-1.4921,-1.4894,-1.4922,-1.493,-1.4928,-1.4948,-1.4946,-1.497,-1.4941,-1.4948,-1.497,-1.497,-1.5008,-1.4964,-1.4996,-1.4997,-1.4996,-1.5088,-1.5106,-1.5176,-1.5055,-1.5057,-1.5058,0,-1.4893,-1.4907,-1.4964,-1.4968,-1.4977,-1.5002,-1.5019,-1.5038,-1.5047,-1.5044,-1.5055,-1.504,-1.5072,-1.5037,-1.5081,-1.5051,-1.5063,-1.5064,-1.5067,-1.5071,-1.5033,-1.5097,-1.5197,-1.5209,-1.5072,-1.5071,-1.507,0,-1.4963,-1.4996,-1.5035,-1.5041,-1.5046,-1.5065,-1.5068,-1.5074,-1.5087,-1.5102,-1.511,-1.5128,-1.5139,-1.5153,-1.5144,-1.5119,-1.519,-1.5153,-1.5189,-1.519,-1.5208,-1.5207,-1.5314,-1.5211,-1.5211,-1.5211,-1.5211,0,-1.5046,-1.5082,-1.5066,-1.509,-1.513,-1.5114,-1.5153,-1.5153,-1.5159,-1.5183,-1.516,-1.5183,-1.5168,-1.519,-1.5182,-1.522,-1.5225,-1.5224,-1.5222,-1.5227,-1.5228,-1.5237,-1.5233,-1.5214,-1.5213,-1.5213,-1.5212,0,-1.5133,-1.5124,-1.5164,-1.5165,-1.5166,-1.5195,-1.5196,-1.5218,-1.5213,-1.5244,-1.525,-1.5243,-1.5267,-1.5258,-1.5284,-1.5279,-1.5328,-1.5319,-1.5326,-1.5324,-1.5361,-1.5359,-1.5479,-1.5495,-1.538,-1.5382,-1.5382,0,-1.5188,-1.5215,-1.5218,-1.5232,-1.5237,-1.5259,-1.5272,-1.5256,-1.5271,-1.5282,-1.5303,-1.5325,-1.5342,-1.5382,-1.5379,-1.5399,-1.5391,-1.5432,-1.5394,-1.5399,-1.5394,-1.5394,-1.5397,-1.5441,-1.5442,-1.5443,-1.5444,0,-1.5287,-1.528,-1.5299,-1.5316,-1.5331,-1.5344,-1.5355,-1.5367,-1.5353,-1.5369,-1.5393,-1.5407,-1.5432,-1.5455,-1.5472,-1.5476,-1.5458,-1.5455,-1.5465,-1.5472,-1.5476,-1.5476,-1.5349,-1.5453,-1.5452,-1.5452,-1.5451,-1.5451,-1.536,-1.5383,-1.5389,-1.5411,-1.5417,-1.5427,-1.5448,-1.5446,-1.5465,-1.5485,-1.5474,-1.5503,-1.551,-1.5531,-1.5537,-1.5559,-1.5544,-1.5557,-1.5561,-1.5565,-1.5571,-1.547,-1.5562,-1.5562,-1.5561,-1.5561,-1.5561,0,-1.546,-1.5462,-1.5482,-1.5497,-1.5514,-1.5494,-1.5504,-1.552,-1.5545,-1.5553,-1.557,-1.5597,-1.5619,-1.5617,-1.5637,-1.5655,-1.5648,-1.5661,-1.5661,-1.5662,-1.5583,-1.5574,-1.5667,-1.5667,-1.5667,-1.5667,-1.5667,-1.5667,-1.5514,-1.5552,-1.5546,-1.5587,-1.5589,-1.5616,-1.5624,-1.5633,-1.564,-1.5671,-1.5689,-1.5687,-1.5691,-1.5711,-1.573,-1.5729,-1.5738,-1.5755,-1.5752,-1.5678,-1.5668,-1.5658,-1.5649,-1.5757,-1.5757,-1.583,-1.583,-1.5831]},{"header":{"parameterUnit":"m.s-1","parameterCategory":1,"la1":30.2991,"la2":30.254,"lo1":-89.0895,"lo2":-89.0444,"dy":0.0017,"dx":0.0017,"nx":28,"ny":28,"refTime":"2025-09-02T03:00:00:Z","depth":0,"parameterNumber":3,"parameterNumberName":"V-component_of_WINDS"},"data":[0,0,0,0,0,0,0,0,0,0,0,0,0,0,0,0,0,0,0,0,0,0,0,0,0,0,0,0,0,0,0,0,0,0,0,0,0,0,0,0,0,0,0,0,0,0,0,0,0,0,0,0,0,0,0,0,0,0,-1.6543,-1.6543,0,-1.6567,-1.6567,-1.6567,-1.6543,-1.6542,-1.6541,-1.654,-1.6563,-1.6564,-1.6566,0,0,0,0,0,0,0,0,0,0,0,0,0,-1.6476,-1.6477,-1.6543,-1.6543,-1.6544,-1.6567,-1.6567,-1.6567,-1.6543,-1.6542,-1.6541,-1.654,-1.6562,-1.6564,-1.6566,0,0,0,0,0,0,0,0,0,0,0,0,0,-1.6503,-1.6478,-1.6543,-1.6534,-1.6534,-1.6567,-1.6567,-1.6568,-1.6543,-1.6542,-1.6541,-1.6539,-1.6562,-1.6564,-1.6566,-1.6608,0,0,-1.6573,-1.6574,0,0,0,0,0,0,0,0,-1.6501,-1.6505,-1.6535,-1.6535,-1.6535,-1.6551,-1.6552,-1.6581,-1.6544,-1.654,-1.654,-1.6539,-1.656,-1.6562,-1.6569,-1.6609,-1.661,-1.6573,-1.6574,-1.6575,-1.6576,0,0,0,0,0,0,0,-1.6499,-1.6504,-1.6552,-1.6536,-1.6535,-1.6529,-1.6531,-1.6557,-1.6557,-1.654,-1.6538,-1.6542,-1.6559,-1.6567,-1.657,-1.661,-1.6573,-1.6575,-1.6576,-1.6577,-1.6686,-1.6688,0,0,0,0,0,0,-1.6499,-1.6503,-1.6552,-1.6553,-1.6514,-1.6531,-1.6534,-1.6547,-1.6557,-1.6557,-1.6543,-1.654,-1.6564,-1.6567,-1.6571,-1.6621,-1.6575,-1.6577,-1.6579,-1.6685,-1.6687,-1.6688,0,0,0,0,0,0,-1.6497,-1.6503,-1.6551,-1.6528,-1.6533,-1.6534,-1.6549,-1.6548,-1.6556,-1.6559,-1.6559,-1.6551,-1.6563,-1.6567,-1.6599,-1.6622,-1.6578,-1.658,-1.6683,-1.6685,-1.6688,-1.6722,0,0,0,0,0,0,-1.6495,-1.6503,-1.6519,-1.6528,-1.6534,-1.658,-1.655,-1.655,-1.656,-1.6557,-1.6567,-1.6567,-1.6563,-1.6596,-1.6601,-1.6624,-1.6582,-1.6681,-1.6684,-1.6687,-1.6719,-1.6726,-1.6731,0,0,0,0,0,-1.6493,-1.6527,-1.652,-1.6526,-1.6555,-1.6581,-1.6584,-1.6579,-1.6562,-1.6579,-1.658,-1.6567,-1.6618,-1.6599,-1.6605,-1.6629,-1.668,-1.6683,-1.6687,-1.6716,-1.6724,-1.6731,0,0,0,0,0,0,-1.652,-1.6528,-1.652,-1.6559,-1.6569,-1.6577,-1.6597,-1.6587,-1.6602,-1.6599,-1.6591,-1.6593,-1.6627,-1.6631,-1.661,-1.667,-1.6646,-1.6651,-1.6667,-1.6674,-1.668,-1.6679,-1.6584,0,0,0,0,0,-1.6531,-1.6552,-1.6557,-1.6591,-1.6597,-1.6596,-1.6607,-1.6602,-1.6613,-1.6617,-1.6621,-1.6631,-1.665,-1.6662,-1.6679,-1.6719,-1.6721,-1.6738,-1.6744,-1.6749,-1.6754,-1.6776,-1.6784,-1.67,-1.67,-1.67,0,0,-1.6552,-1.656,-1.6573,-1.6596,-1.6604,-1.6626,-1.66,-1.6624,-1.664,-1.662,-1.6651,-1.6654,-1.6665,-1.6702,-1.6718,-1.6706,-1.6777,-1.6754,-1.6758,-1.6759,-1.678,-1.6788,-1.6795,-1.6702,-1.6702,-1.6702,0,0,-1.6603,-1.6611,-1.664,-1.6648,-1.6661,-1.666,-1.6667,-1.6676,-1.6678,-1.6709,-1.6695,-1.6713,-1.6745,-1.6754,-1.6763,-1.6818,-1.6806,-1.6824,-1.6855,-1.6877,-1.6883,-1.6889,-1.6909,-1.6917,-1.6828,-1.6828,-1.6828,0,-1.6629,-1.6661,-1.6655,-1.6681,-1.6692,-1.6676,-1.6705,-1.6713,-1.673,-1.6738,-1.6724,-1.6765,-1.6771,-1.681,-1.6823,-1.6831,-1.6838,-1.6823,-1.6883,-1.6889,-1.6894,-1.6913,-1.6921,-1.683,-1.683,-1.683,-1.6829,0,-1.6692,-1.6715,-1.6737,-1.6755,-1.6768,-1.6795,-1.6793,-1.6807,-1.6801,-1.6802,-1.6834,-1.6841,-1.686,-1.6868,-1.6862,-1.6906,-1.6899,-1.6884,-1.686,-1.6904,-1.6922,-1.6929,-1.6833,-1.6832,-1.6832,-1.6831,0,0,-1.6761,-1.6776,-1.6784,-1.6793,-1.6805,-1.6823,-1.6849,-1.6868,-1.6881,-1.6893,-1.6915,-1.6943,-1.693,-1.694,-1.6934,-1.6953,-1.6998,-1.6936,-1.6937,-1.6948,-1.7048,-1.7059,-1.7068,-1.699,-1.6991,-1.6992,-1.7047,0,-1.6813,-1.6859,-1.6855,-1.6899,-1.6921,-1.6906,-1.6929,-1.694,-1.6941,-1.696,-1.6961,-1.6981,-1.6962,-1.6968,-1.6986,-1.6988,-1.7018,-1.6984,-1.701,-1.7011,-1.7009,-1.7077,-1.7089,-1.714,-1.7054,-1.7055,-1.7056,0,-1.6879,-1.6895,-1.6942,-1.6953,-1.6961,-1.6982,-1.7,-1.7017,-1.7029,-1.7029,-1.704,-1.7032,-1.7058,-1.7033,-1.707,-1.7047,-1.7058,-1.706,-1.7062,-1.7065,-1.7037,-1.7082,-1.7157,-1.7165,-1.7067,-1.7066,-1.7065,0,-1.6926,-1.6959,-1.6991,-1.6999,-1.7011,-1.7027,-1.7033,-1.7043,-1.7055,-1.707,-1.7078,-1.7095,-1.7105,-1.7119,-1.7115,-1.7097,-1.7153,-1.7127,-1.7154,-1.7154,-1.7167,-1.7166,-1.7244,-1.7172,-1.7172,-1.7172,-1.7172,0,-1.6984,-1.7014,-1.7012,-1.7032,-1.7065,-1.706,-1.7092,-1.7096,-1.7105,-1.7125,-1.7113,-1.7133,-1.7127,-1.7146,-1.7143,-1.7174,-1.7178,-1.7179,-1.7178,-1.7181,-1.7181,-1.7188,-1.7184,-1.7174,-1.7174,-1.7173,-1.7173,0,-1.7042,-1.7042,-1.7077,-1.7086,-1.7089,-1.7113,-1.7121,-1.714,-1.7141,-1.7167,-1.7173,-1.7174,-1.7196,-1.7194,-1.7218,-1.7216,-1.7255,-1.7249,-1.7252,-1.7251,-1.7277,-1.7275,-1.7364,-1.7375,-1.7295,-1.7296,-1.7296,0,-1.708,-1.7102,-1.7115,-1.7128,-1.7135,-1.7156,-1.7169,-1.7165,-1.7178,-1.7193,-1.721,-1.7231,-1.7248,-1.7283,-1.7286,-1.7305,-1.73,-1.733,-1.7303,-1.7305,-1.7301,-1.73,-1.7303,-1.7335,-1.7336,-1.7337,-1.7337,0,-1.7147,-1.7146,-1.7165,-1.7185,-1.72,-1.7215,-1.7228,-1.724,-1.7237,-1.7252,-1.7275,-1.7288,-1.7313,-1.7334,-1.7352,-1.7358,-1.7347,-1.7346,-1.7353,-1.7356,-1.7357,-1.7358,-1.7267,-1.7344,-1.7343,-1.7343,-1.7342,-1.7342,-1.7196,-1.7216,-1.7228,-1.725,-1.726,-1.7273,-1.7291,-1.7295,-1.7314,-1.7335,-1.7331,-1.7357,-1.7368,-1.7391,-1.7398,-1.7418,-1.7407,-1.7418,-1.742,-1.7423,-1.7427,-1.7353,-1.7421,-1.7421,-1.7421,-1.7421,-1.742,0,-1.7264,-1.7271,-1.7291,-1.7311,-1.7328,-1.7317,-1.7332,-1.7347,-1.737,-1.7382,-1.7399,-1.7425,-1.7445,-1.745,-1.747,-1.7485,-1.7481,-1.749,-1.7489,-1.7491,-1.7435,-1.7427,-1.7493,-1.7493,-1.7493,-1.7493,-1.7493,-1.7493,-1.7301,-1.7334,-1.7335,-1.7373,-1.7379,-1.7405,-1.7415,-1.7427,-1.7436,-1.7466,-1.7484,-1.7487,-1.7496,-1.7516,-1.7535,-1.7536,-1.7544,-1.7555,-1.7554,-1.7502,-1.7495,-1.7488,-1.748,-1.7557,-1.7557,-1.7609,-1.7609,-1.761]}]]